TimeCDT,TemperatureF,Dew PointF,Humidity,Sea Level PressureIn,VisibilityMPH,Wind Direction,Wind SpeedMPH,Gust SpeedMPH,PrecipitationIn,Events,Conditions,WindDirDegrees,DateUTC
12:56 AM,50.0,44.1,80,29.79,9.0,ENE,3.5,-,N/A,,Clear,70,2013-04-29 05:56:00
1:56 AM,50.0,44.1,80,29.78,9.0,Calm,Calm,-,N/A,,Clear,0,2013-04-29 06:56:00
2:56 AM,50.0,45.0,83,29.79,9.0,Calm,Calm,-,N/A,,Clear,0,2013-04-29 07:56:00
3:56 AM,53.1,45.0,74,29.80,10.0,Calm,Calm,-,N/A,,Clear,0,2013-04-29 08:56:00
4:56 AM,53.1,46.9,80,29.82,9.0,Calm,Calm,-,N/A,,Overcast,0,2013-04-29 09:56:00
5:56 AM,53.1,48.0,83,29.81,8.0,East,4.6,-,N/A,,Mostly Cloudy,100,2013-04-29 10:56:00
6:56 AM,54.0,48.9,83,29.81,7.0,East,3.5,-,N/A,,Scattered Clouds,100,2013-04-29 11:56:00
7:56 AM,57.9,51.1,78,29.82,8.0,South,5.8,-,N/A,,Scattered Clouds,180,2013-04-29 12:56:00
8:56 AM,60.1,51.1,72,29.81,9.0,South,8.1,-,N/A,,Clear,190,2013-04-29 13:56:00
9:56 AM,61.0,51.1,70,29.80,9.0,South,9.2,-,N/A,,Mostly Cloudy,190,2013-04-29 14:56:00
10:56 AM,63.0,51.1,65,29.79,7.0,Calm,Calm,-,N/A,,Overcast,0,2013-04-29 15:56:00
11:56 AM,64.0,51.1,63,29.79,10.0,ESE,5.8,-,N/A,,Mostly Cloudy,120,2013-04-29 16:56:00
12:56 PM,66.9,51.1,57,29.76,10.0,SE,11.5,-,N/A,,Clear,140,2013-04-29 17:56:00
1:56 PM,64.9,53.1,65,29.77,10.0,SSW,10.4,-,0.00,,Overcast,200,2013-04-29 18:56:00
2:47 PM,64.4,53.6,68,29.76,10.0,ESE,6.9,-,0.00,Thunderstorm,Mostly Cloudy,110,2013-04-29 19:47:00
2:56 PM,64.0,53.1,67,29.75,10.0,ESE,3.5,-,0.00,,Mostly Cloudy,110,2013-04-29 19:56:00
3:56 PM,66.9,54.0,63,29.72,10.0,East,6.9,-,N/A,,Mostly Cloudy,100,2013-04-29 20:56:00
4:56 PM,71.1,54.0,55,29.69,10.0,East,9.2,-,N/A,,Scattered Clouds,100,2013-04-29 21:56:00
5:56 PM,73.0,51.1,46,29.68,10.0,ESE,9.2,-,N/A,,Overcast,120,2013-04-29 22:56:00
6:56 PM,71.1,53.1,53,29.67,10.0,East,10.4,-,N/A,,Mostly Cloudy,100,2013-04-29 23:56:00
7:56 PM,66.9,53.1,61,29.66,10.0,ESE,6.9,-,N/A,,Partly Cloudy,110,2013-04-30 00:56:00
8:56 PM,66.0,54.0,65,29.65,10.0,East,8.1,-,N/A,,Clear,100,2013-04-30 01:56:00
9:56 PM,68.0,55.9,65,29.67,10.0,Variable,6.9,-,N/A,,Partly Cloudy,0,2013-04-30 02:56:00
10:56 PM,68.0,57.0,68,29.66,10.0,SE,8.1,-,N/A,,Clear,140,2013-04-30 03:56:00
11:56 PM,68.0,57.9,70,29.65,10.0,South,11.5,20.7,N/A,,Clear,170,2013-04-30 04:56:00